Flag for U.S.A. Weather past 2 weeks in Dover, Delaware, U.S.A.

Now
82 °F

Sunny.


Feels Like: 88 °F
Forecast: 73 / 88 °F
Wind: 7 mph from South

Location: Dover Air Force Base

Current Time: Jul 28, 2015 at 8:45:00 PM

Latest Report: Jul 28, 2015 at 7:58 PM


Visibility: 10 mi

Pressure: 29.97 "Hg

Humidity: 79%

Dew point: 75 °F

Location of DoverLocation

Historic Weather in Dover — Graph

°F

Dover temperature yesterday

Maximum temperature yesterday: 81 °F (at 2:58 PM)
Minimum temperature yesterday: 69 °F (at 5:58 AM)
Average temperature yesterday: 76 °F

Past Weeks' High & Low Weather Summary

 TemperatureHumidityPressure
High93 °F (Jul 19, 4:58 PM)100% (Jul 13, 9:58 PM)30.11 "Hg (Jul 13, 9:58 PM)
Low62 °F (Jul 17, 5:58 AM)35% (Jul 24, 2:58 PM)29.52 "Hg (Jul 15, 4:58 AM)
Average77 °F78%29.88 "Hg
* Reported Jul 13 7:58 PM — Jul 28 7:58 PM, Dover, Weather by CustomWeather, © 2015

Note: Actual official high and low records may vary slightly from our data, if they occured in-between our weather recording intervals... More about our weather records

Advertising

Dover weather history for previous 24 hours

 ConditionsComfort  
Time TempWeatherWind HumidityBarometerVisibility
7:58 PM
Tue, Jul 28
82 °FSunny.7 mph79%29.97 "Hg10 mi
6:58 PM83 °FSunny.7 mph78%29.95 "Hg10 mi
5:58 PM84 °FSunny.12 mph74%29.96 "Hg10 mi
4:58 PM86 °FSunny.9 mph70%29.96 "Hg10 mi
3:58 PM86 °FSunny.6 mph72%29.96 "Hg10 mi
2:58 PM85 °FPassing clouds.6 mph74%29.97 "Hg10 mi
1:58 PM85 °FScattered clouds.6 mph75%29.99 "Hg10 mi
12:58 PM86 °FPassing clouds.2 mph70%29.99 "Hg10 mi
12:01 PM84 °FPassing clouds.5 mph74%30.00 "Hg10 mi
11:58 AM84 °FSunny.2 mph74%30.01 "Hg10 mi
10:58 AM83 °FBroken clouds.6 mph81%30.01 "Hg10 mi
9:58 AM79 °FScattered clouds.1 mph93%30.01 "Hg10 mi
8:58 AM78 °FScattered clouds.5 mph100%30.02 "Hg10 mi
7:58 AM77 °FSunny.2 mph100%30.02 "Hg10 mi
6:58 AM73 °FSunny.2 mph100%30.01 "Hg10 mi
5:58 AM72 °FClear.3 mph100%30.00 "Hg10 mi
4:58 AM72 °FClear.2 mph100%30.00 "Hg10 mi
3:58 AM73 °FClear.3 mph100%30.00 "Hg10 mi
2:58 AM74 °FClear.5 mph100%30.00 "Hg10 mi
1:58 AM74 °FPassing clouds.3 mph100%30.01 "Hg10 mi
12:58 AM73 °FPassing clouds.3 mph100%30.01 "Hg10 mi
11:58 PM
Mon, Jul 27
74 °FPassing clouds.5 mph100%30.01 "Hg10 mi
10:58 PM75 °FPassing clouds.5 mph94%30.01 "Hg10 mi
9:58 PM76 °FPassing clouds.6 mph93%30.02 "Hg10 mi
8:58 PM77 °FSunny.7 mph92%29.99 "Hg9 mi
Weather by CustomWeather, © 2015

See weather overviewHow to use our weather pages